Theta_e
310 307 308 310 308 310 308 307 308 308 309 311 310 311 311 313 312 311 311 313 313 314 315 315 315 315 316 316 316 316 316 315 313 312 310 308 308 308 306 305 303 302 301 300
309 308 309 308 308 308 309 310 309 310 309 307 308 309 310 309 311 312 312 312 312 313 315 316 315 315 315 315 316 315 315 314 314 312 312 309 309 308 307 305 304 302 300 299
310 310 309 308 308 309 308 308 310 310 309 307 307 310 309 308 309 311 311 312 312 313 313 315 315 315 315 315 315 315 315 314 313 312 311 309 307 306 305 304 303 301 300 299
308 309 309 308 308 308 311 308 309 310 309 311 309 312 310 309 310 307 311 312 312 314 315 316 316 316 315 316 315 314 314 314 313 312 311 310 310 309 308 306 305 303 300 299
307 309 309 309 310 308 310 309 308 308 307 308 309 308 312 309 308 308 309 311 315 316 316 316 316 315 315 315 315 315 314 313 312 311 311 311 310 310 309 307 306 303 301 299
307 308 308 308 307 307 308 310 309 305 307 310 309 310 311 308 309 309 309 313 315 316 316 316 316 315 314 315 315 314 314 313 312 311 310 310 310 309 308 307 305 304 302 301
306 307 307 308 309 308 309 309 309 309 308 312 307 309 312 311 308 309 310 313 314 313 313 313 313 313 313 315 315 314 313 312 312 311 311 310 310 309 308 308 307 306 304 302
307 312 307 306 308 308 307 308 310 308 310 313 307 311 314 309 309 311 308 311 312 313 314 313 311 313 312 312 313 313 313 312 311 311 311 310 309 308 307 307 306 306 305 305
306 308 307 305 307 308 306 308 308 309 298 304 311 310 312 308 307 309 309 310 311 312 313 313 313 311 312 311 311 310 311 311 311 310 310 310 309 308 307 306 306 305 305 304
309 311 308 305 307 306 306 306 309 307 312 308 311 310 312 311 312 312 308 307 309 311 312 313 313 312 311 311 312 311 311 311 310 310 310 309 309 308 307 306 305 305 304 304
310 312 313 310 309 310 306 307 307 308 311 314 316 315 314 312 307 306 304 307 308 310 312 312 313 311 311 311 310 310 311 311 311 311 310 309 309 308 307 306 306 306 305 304
309 313 316 314 309 305 307 308 308 311 312 310 313 315 314 313 312 310 311 311 311 312 312 312 312 311 310 310 310 311 311 311 310 310 309 309 308 307 306 306 307 306 306 304
311 312 316 315 311 308 311 311 311 311 311 312 313 312 311 311 311 311 311 310 311 311 311 311 311 312 310 309 309 309 311 311 310 309 308 307 306 306 306 306 306 305 305 304
312 314 315 315 313 313 311 311 310 313 315 314 313 313 312 311 311 311 311 311 310 307 305 304 305 306 305 304 304 305 306 305 307 308 310 309 307 308 307 306 305 303 304 303
308 312 312 311 311 309 310 310 312 314 314 314 314 314 313 312 310 305 301 300 299 299 299 297 296 296 298 300 300 300 303 304 307 307 306 305 306 306 306 304 303 303 302 301
302 304 305 306 306 306 308 310 311 310 309 311 312 313 301 296 294 293 293 293 293 293 294 294 293 293 294 295 296 296 297 299 303 305 307 308 305 304 305 304 303 302 302 300
299 301 301 303 302 301 301 301 303 305 305 303 306 297 295 293 292 291 292 291 291 292 292 292 292 292 293 294 293 294 296 297 299 303 304 305 304 305 304 305 303 302 301 299
297 297 297 298 296 295 297 298 296 298 296 295 295 293 294 292 291 290 293 290 290 291 291 291 290 292 293 293 295 294 294 295 297 299 302 302 302 302 302 301 301 300 300 298
295 297 290 292 291 297 299 293 291 291 294 293 292 292 291 291 290 290 289 289 289 290 290 289 289 289 290 290 290 292 296 294 297 297 300 300 298 298 298 297 298 298 297 297
294 296 297 297 296 296 295 291 292 291 295 292 292 292 291 290 289 289 289 288 288 288 287 287 287 287 287 288 288 289 290 291 293 296 298 299 298 296 296 295 295 295 295 294
283 280 285 285 294 294 291 291 289 291 289 293 292 291 290 290 289 289 288 287 286 285 284 285 284 284 286 286 287 287 288 289 291 292 298 299 299 297 293 294 293 292 292 291
287 283 281 279 282 289 290 289 289 289 289 292 290 288 288 287 286 286 285 284 284 283 283 282 282 283 284 284 285 286 286 287 288 290 291 294 298 298 296 292 293 291 289 289
287 288 286 287 287 291 291 290 290 289 289 291 288 287 286 285 285 284 284 283 283 283 282 282 281 281 281 282 283 283 285 284 283 286 289 290 291 294 297 295 296 293 290 288
289 290 290 288 290 289 290 289 289 289 290 288 287 286 283 283 283 282 281 282 282 282 282 281 280 280 281 279 280 282 282 282 282 285 287 289 289 291 292 294 295 296 293 289
289 288 287 289 289 289 289 289 289 289 288 287 286 285 282 281 281 279 279 279 278 278 278 278 278 279 279 277 279 278 279 278 280 281 283 286 289 291 291 291 292 292 295 293
290 289 289 289 290 289 289 290 289 287 285 284 282 282 282 279 278 277 277 277 276 275 275 274 275 275 280 278 276 274 275 275 277 278 279 281 284 288 289 290 290 291 288 288
Wind_Speed
6 4 10 23 17 6 4 6 8 10 10 3 10 15 16 28 27 25 35 44 50 54 60 55 50 45 45 42 41 41 43 45 47 49 48 47 47 44 44 43 41 40 37 36
1 11 21 1 3 8 11 16 14 18 17 5 17 24 20 12 24 38 37 39 44 47 50 46 43 38 41 42 45 43 44 47 49 50 47 49 48 47 44 44 43 42 41 38
16 8 13 8 6 7 9 8 17 16 7 6 10 20 15 14 27 40 43 43 46 47 49 48 45 41 36 36 36 36 39 44 48 49 49 49 48 47 47 47 46 45 43 41
9 9 10 5 6 13 20 13 14 13 3 11 3 15 7 10 16 10 30 35 37 45 42 40 39 38 37 34 32 34 36 41 44 49 50 51 51 49 49 48 45 46 44 42
9 4 4 7 15 10 11 5 7 4 5 5 5 5 1 5 7 14 17 31 35 33 37 36 37 38 27 26 29 27 34 39 42 48 51 50 50 50 46 45 47 46 45 43
11 0 6 8 6 10 1 1 2 4 3 10 13 10 3 6 8 5 7 23 26 30 30 33 36 36 31 25 30 30 32 34 38 43 48 50 51 50 46 47 47 46 46 45
2 5 4 6 4 2 5 3 4 4 1 11 6 7 15 7 8 8 11 27 27 25 29 38 42 40 31 25 28 30 32 35 37 40 45 49 50 48 47 47 46 45 45 47
3 13 7 5 9 8 8 11 6 8 8 17 5 13 14 8 12 17 7 11 14 20 29 38 25 22 31 27 28 31 30 32 34 38 43 44 48 48 49 47 46 45 43 43
4 9 2 4 2 8 3 6 5 1 2 1 10 18 19 6 7 1 6 3 7 17 27 34 37 26 22 20 25 27 26 29 30 35 40 43 46 50 52 49 48 45 43 42
2 12 4 0 2 3 7 2 2 1 3 9 15 10 18 15 19 19 6 7 12 25 38 42 35 23 19 14 12 17 23 27 28 32 38 44 47 49 49 50 49 47 45 44
4 3 10 5 6 10 1 4 5 1 5 14 18 15 26 18 10 6 7 16 21 30 40 34 29 17 12 10 12 13 17 22 26 30 40 46 49 50 49 51 50 48 47 46
9 2 11 12 5 5 4 7 7 9 9 11 17 21 28 28 20 16 27 28 29 31 35 33 33 29 18 20 27 26 26 32 35 37 42 46 47 49 51 52 53 52 51 50
6 5 10 12 4 1 6 12 15 17 16 22 21 18 15 23 31 35 28 23 31 35 33 29 29 32 35 32 32 28 33 32 36 43 42 45 47 48 50 53 56 57 55 54
2 17 19 18 21 15 10 8 11 18 13 20 21 27 23 25 28 30 51 31 29 22 22 21 20 19 22 23 23 26 27 28 34 37 40 46 47 45 48 51 55 57 54 56
2 7 8 11 10 13 20 22 25 28 26 24 23 27 24 26 22 22 30 30 30 31 31 32 36 36 33 31 32 31 31 31 30 33 38 49 48 47 48 49 52 53 53 54
2 6 13 21 24 20 21 17 17 18 18 21 24 30 18 22 28 29 25 30 28 28 31 32 38 39 41 42 41 39 37 35 31 34 35 35 40 46 45 45 48 50 51 53
6 5 6 21 23 21 16 23 23 23 17 13 13 8 12 17 20 29 16 28 30 32 35 37 40 41 41 42 39 39 37 36 34 32 34 35 37 41 45 44 45 47 50 50
16 17 8 16 15 12 9 3 7 4 9 9 9 12 12 16 21 19 14 31 29 28 31 33 37 38 41 40 43 42 38 37 36 33 30 31 33 34 40 43 43 44 45 48
14 11 4 3 6 13 11 8 5 7 3 5 5 6 12 16 20 16 19 23 25 23 29 34 37 39 39 40 41 45 47 42 38 35 31 30 29 30 33 39 39 40 41 45
4 10 8 5 7 5 3 4 5 7 7 6 4 5 6 13 10 14 21 30 29 29 33 36 37 41 39 42 43 44 44 46 38 34 32 31 29 27 29 32 33 35 37 41
3 3 4 5 6 5 3 6 3 2 5 7 6 4 9 7 11 32 34 28 28 32 35 36 38 41 41 39 41 45 45 45 41 34 32 31 30 29 26 26 27 30 33 36
4 2 3 1 0 8 6 6 0 7 15 13 7 12 14 18 25 29 33 33 32 36 36 35 38 43 43 44 42 43 45 45 46 37 33 28 28 29 27 26 25 25 29 32
4 6 5 8 6 9 26 18 23 20 22 17 16 20 17 21 27 29 31 36 39 40 43 43 40 44 51 49 44 45 47 48 48 45 38 32 29 27 28 28 29 24 28 32
8 21 7 1 11 16 21 30 27 26 21 20 22 20 19 22 27 29 35 39 40 42 44 45 47 52 56 52 51 50 49 45 41 39 40 34 30 31 31 33 34 31 29 34
9 4 7 13 17 22 29 30 26 20 20 24 27 24 27 23 32 30 35 40 41 42 47 46 52 55 58 53 55 51 50 48 46 44 43 38 31 33 35 35 37 41 37 37
14 19 13 15 27 21 22 29 20 17 21 19 22 30 31 30 35 33 41 41 39 45 48 48 53 57 61 59 58 53 48 44 44 45 45 38 37 34 36 37 38 41 42 40
Wind_Direction
188 141 207 221 204 235 193 227 234 255 264 225 236 251 254 268 278 261 268 273 274 277 284 283 275 270 266 262 255 252 251 244 238 235 232 230 231 231 231 230 231 231 231 231
84 216 224 237 162 219 235 254 261 270 265 207 269 265 266 255 260 264 263 264 268 273 282 284 283 275 265 262 258 260 251 245 240 236 235 233 232 231 234 232 230 230 230 231
224 219 222 207 217 242 224 227 255 264 306 237 280 275 249 250 248 262 265 259 267 269 275 284 284 283 276 266 260 258 254 246 240 236 230 231 231 233 232 231 229 229 230 231
246 240 209 168 213 212 264 220 254 263 341 277 3 297 257 238 249 230 260 271 267 279 281 282 284 281 279 276 271 261 251 245 238 234 231 230 233 232 236 236 234 231 230 231
244 198 165 194 228 167 253 180 221 200 200 315 179 254 228 170 246 251 253 260 274 280 285 288 291 295 288 274 262 254 249 248 238 233 230 229 230 234 239 238 235 234 232 232
255 293 178 219 207 181 48 43 70 57 122 263 199 207 343 166 218 273 276 271 280 284 289 292 291 294 297 273 258 248 241 239 238 234 231 231 232 232 232 235 236 235 232 233
323 221 235 189 248 140 129 72 307 315 9 254 177 211 248 266 225 211 248 276 297 308 321 314 303 302 299 264 249 243 241 238 232 230 229 231 234 236 236 235 235 234 232 233
259 291 189 171 199 196 186 166 178 230 263 282 124 260 275 229 237 249 307 307 329 354 353 346 324 308 296 269 253 241 241 242 239 233 230 231 236 239 240 238 238 238 236 239
207 263 227 199 172 161 178 176 199 288 11 331 263 275 288 260 294 349 302 326 332 354 350 351 346 323 293 269 253 253 254 252 249 243 237 235 234 236 239 241 240 239 240 240
313 296 211 331 201 194 176 180 61 360 208 257 273 273 263 283 286 284 254 279 308 325 323 331 337 331 310 286 279 273 267 266 265 258 248 243 242 241 243 244 242 242 242 241
95 263 259 349 204 231 163 228 200 201 197 248 261 266 268 273 266 243 269 287 305 318 326 326 322 312 314 304 283 272 272 266 263 278 263 252 249 247 245 244 244 243 243 242
202 271 256 255 250 176 169 230 210 233 251 236 253 253 279 280 286 267 277 289 297 299 303 304 307 294 286 296 298 296 293 283 272 271 263 259 254 250 248 247 246 243 243 243
190 219 279 288 278 302 198 228 234 244 262 260 263 265 269 291 293 287 291 287 293 300 299 306 296 298 301 300 298 289 301 295 286 276 272 264 257 254 251 248 248 245 244 244
198 256 252 258 266 297 287 258 248 240 250 256 257 270 269 273 281 294 300 331 350 6 11 8 349 331 327 334 329 316 309 306 300 287 278 273 263 262 259 252 252 249 248 246
356 273 272 289 300 311 312 303 288 271 266 262 271 278 284 281 310 355 3 6 18 14 5 359 351 346 346 340 338 333 329 327 311 296 288 277 269 263 260 256 254 253 251 249
13 281 309 288 286 283 276 272 273 281 283 277 277 276 11 15 11 8 12 12 7 0 352 347 344 340 345 347 344 340 336 332 320 303 290 287 278 270 264 259 256 255 252 248
259 259 272 275 281 299 280 262 271 273 279 321 302 10 3 5 358 343 16 1 350 344 342 340 338 336 335 336 340 336 333 333 333 327 307 288 281 274 269 265 258 254 252 248
253 258 252 267 288 260 258 17 44 15 65 34 58 34 9 340 327 342 329 347 339 338 335 331 327 326 324 323 326 326 328 330 334 334 329 310 291 283 276 268 260 254 251 247
223 246 266 231 214 270 298 15 18 19 2 55 1 7 330 329 319 321 333 331 322 324 320 323 329 326 323 325 326 320 318 322 327 330 330 329 319 298 282 270 262 255 249 246
155 210 228 294 290 265 161 239 237 272 241 221 211 296 314 337 335 309 322 320 318 324 324 325 323 317 321 324 322 320 319 315 317 321 326 326 325 311 293 278 267 257 251 247
2 348 193 247 266 276 235 307 328 65 277 125 163 241 280 293 283 292 306 309 310 319 325 324 323 319 321 320 319 316 314 313 312 309 306 316 323 315 297 285 270 260 248 243
159 179 233 16 94 279 356 352 115 241 273 274 258 292 291 294 296 302 309 309 312 317 321 322 319 321 320 318 317 314 309 310 307 304 301 298 296 304 301 286 276 256 248 242
254 204 241 190 216 288 308 281 282 286 277 259 280 293 287 294 296 301 304 308 314 319 322 323 318 313 315 316 314 307 305 305 303 301 297 295 293 284 281 277 274 259 250 243
245 246 235 355 261 263 263 278 275 284 252 274 293 288 296 295 298 297 303 307 309 312 315 317 314 312 311 310 307 305 305 304 300 294 296 294 290 282 274 267 264 260 249 239
238 137 228 256 271 270 274 272 275 255 259 279 289 282 297 295 298 299 298 301 304 306 308 308 309 308 305 305 304 303 301 299 297 294 282 285 284 283 275 267 263 260 254 247
242 245 248 254 269 267 278 287 275 273 285 278 285 297 301 301 301 301 301 303 299 300 303 302 304 306 305 303 301 300 299 298 297 292 286 281 278 277 277 269 263 260 255 251